Location: Balaclava NSW 2575, Australia
(34.4510°S, 150.4953°E)
Time: 19:41:23
(UTC+10:00)

Hubble Space Telescope - Pass Details

Date: 19 May 2021
Orbit: 535 x 539 km, 28.5° (Epoch: 17 June)

Event Time Altitude Azimuth Distance (km) Brightness Sun altitude
Rises 19:22:57 0° 283° (WNW) 2,689 5.5 -28.9°
Reaches altitude 10° 19:25:20 10° 292° (WNW) 1,798 4.3 -29.4°
Enters shadow 19:27:23 24° 311° (NW) 1,138 2.8 -29.9°
